Showing default

SKYSAT C6, 42992

Orbit data source: Space-Track

SKYSAT C6, 42992 is a payload satellite owned by Terra Bella (US) in SSO that was launched on Tue, 31 Oct 2017 UTC via a MINOTAUR-C 3210 launch vehicle from the Air Force Western Test Range (AFWTR). Payload-class satellites include a variety of spacecraft equipped with specific instruments for various scientific and technological missions. These include communications satellites like Starlink; space stations such as the ISS; scientific satellites like the Hubble; Earth observation satellites from companies like Planet Labs, Umbra, and HawkEye 360; GPS; miniature CubeSats for education and research; and military/defense satellites.

Loading next visibility...
Identifier
42992, 2017-068F
Orbit
SSO
Country
Flag of USUS
Related business
Manufacturer
Maxar SSL
Mission
Operational Commercial Imaging
Bus & Motor
SKYSAT-GEN2, Unknown motor
Mass
110 kg wet, 110 kg dry
Launch date (UTC)
2017-10-31 (8 years ago)
Launch vehicle
MINOTAUR-C 3210
Launch site
Air Force Western Test Range (AFWTR)
Object type
Payload
Rocket body
Debris
Shape & HBR
Box, 1.0 m
Radar Cross Section
0.888 m², Medium (>0.1 m² and < 1m²)

Expand to show TLE details & history
Last TLE update: 16 hours ago

TLE from 16 hours ago
0 SKYSAT C6
1 42992U 17068F   25346.31024277  .00016064  00000-0  53032-3 0  9997
2 42992  97.4317 117.7887 0005199  83.6363 276.5470 15.31474953453691
Epoch: 2025-12-12T07:26Z
TLE epoch observation values (Epoch: 2025-12-12T07:26:44.975Z)
Latitude
-0.00004°
Longitude
-75.15239°
Altitude
474.112 km
Speed
7.629 km/s
True Right ascension
07h 51m 09s
True Declination
0° 00' 00"
Sunlit
Object was in full shadow at epoch
Visualization orbit readout
Latitude
Unknown
Longitude
Unknown
Altitude
Unknown
Speed
Unknown
Apparent Right ascension
Unknown
Apparent Declination
Unknown
Sunlit
N/A
Visualization observer readout
Local Sidereal Time
21:32:22
Azimuth
Unknown
Elevation
Unknown
Doppler factor
Unknown
Orbital elements
Apogee altitude
471.922 km
Perigee altitude
464.803 km
Semi-major axis
6,846.5 km
Eccentricity
0.00052
Inclination
97.4317°
RAAN
117.7887°
Arg. of periapsis
83.6363°
True anomaly
276.48781°
Mean anomaly
276.547°
Eccentric anomaly
276.5174°
Mean motion
3.83125 °/min
Orbital period
93.96 mins
BSTAR
0.00053032
Loading maneuver chart data...
Computing Atmospheric mass density...
Loading historical data...
Loading historical data...
Loading historical data...
Loading historical data...
Loading historical data...
Loading historical data...
Loading historical data...

Documentation

Showing up to 5 results
|